M I D A S
Marine Information and Data Acquisition System
Tripno 307 of the Zeeleeuw from 2002-08-21 06:54:07 to 2002-08-21 15:43:45
Back to CruiseResearch ActivitiesStationsMapUnderway DataData graphs

EquipmentUnitsComments
TimeDGPSUTC
LatitudeDGPSDM.mWGS84
LongitudeDGPSDM.mWGS84
SpeedMeteo Stationm/sRelative wind speed
DirectionMeteo StationdegRelative wind direction
TemperatureMeteo Stationdeg CelciusAir temperature
PressureMeteo StationPaAtmospheric pressure
HumidityMeteo Station%Relative humidity
Missing or incorrect values are displayed as -999
Metereological data collected by the RV Zeeleeuw from 2002-08-21 06:54:07 to 2002-08-21 15:43:45
                                                                                    Next 1000 lines
Time Latitude Longitude Speed Direction Temperature Pressure Humidity
2002-08-21 06:54:16 51°13.662 2°55.956 8.2 16 18.4 101510 82
2002-08-21 06:54:21 51°13.662 2°55.956 8.2 359 18.4 101510 82
2002-08-21 06:54:27 51°13.663 2°55.955 6.1 1 18.4 101520 82
2002-08-21 06:54:31 51°13.663 2°55.954 8.7 11 18.4 101520 82
2002-08-21 06:54:36 51°13.664 2°55.952 6.4 353 18.4 101520 82
2002-08-21 06:54:41 51°13.664 2°55.95 10.3 10 18.4 101520 82
2002-08-21 06:54:46 51°13.665 2°55.948 9.7 6 18.3 101510 82
2002-08-21 06:54:51 51°13.666 2°55.945 6.9 23 18.3 101510 82
2002-08-21 06:54:57 51°13.667 2°55.94 6.2 16 18.4 101520 82
2002-08-21 06:55:02 51°13.668 2°55.936 7.6 12 18.4 101520 82
2002-08-21 06:55:07 51°13.669 2°55.931 8 18 18.4 101510 83
2002-08-21 06:55:12 51°13.67 2°55.925 8.8 15 18.4 101510 83
2002-08-21 06:55:17 51°13.671 2°55.92 7.1 15 18.4 101520 83
2002-08-21 06:55:22 51°13.672 2°55.913 9.4 21 18.4 101520 83
2002-08-21 06:55:27 51°13.673 2°55.907 10.4 21 18.4 101520 83
2002-08-21 06:55:32 51°13.674 2°55.9 8.4 21 18.4 101520 83
2002-08-21 06:55:37 51°13.675 2°55.894 4.8 333 18.3 101530 83
2002-08-21 06:55:42 51°13.676 2°55.887 7.9 9 18.3 101530 83
2002-08-21 06:55:47 51°13.677 2°55.88 6.5 16 18.4 101520 83
2002-08-21 06:55:52 51°13.678 2°55.872 9 354 18.4 101520 83
2002-08-21 06:55:57 51°13.679 2°55.865 8.2 18 18.3 101520 83
2002-08-21 06:56:02 51°13.68 2°55.857 10.6 11 18.3 101520 83
2002-08-21 06:56:07 51°13.681 2°55.849 9.7 6 18.3 101520 83
2002-08-21 06:56:12 51°13.681 2°55.841 10 19 18.3 101520 83
2002-08-21 06:56:17 51°13.682 2°55.833 10.8 352 18.3 101530 83
2002-08-21 06:56:22 51°13.682 2°55.824 10.3 353 18.3 101530 83
2002-08-21 06:56:27 51°13.683 2°55.816 11.9 3 18.3 101530 83
2002-08-21 06:56:32 51°13.683 2°55.807 12.8 358 18.3 101540 83
2002-08-21 06:56:37 51°13.683 2°55.799 12.9 357 18.3 101540 83
2002-08-21 06:56:42 51°13.683 2°55.79 11.4 1 18.3 101540 83
2002-08-21 06:56:47 51°13.683 2°55.781 10.1 356 18.3 101530 83
2002-08-21 06:56:52 51°13.683 2°55.773 10.7 347 18.3 101530 83
2002-08-21 06:56:57 51°13.683 2°55.764 4 337 18.3 101530 83
2002-08-21 06:57:01 51°13.682 2°55.758 5.1 336 18.3 101530 83
2002-08-21 06:57:06 51°13.681 2°55.751 2.2 326 18.3 101540 83
2002-08-21 06:57:11 51°13.68 2°55.744 3.5 339 18.3 101540 83
2002-08-21 06:57:16 51°13.68 2°55.739 3.5 296 18.3 101520 83
2002-08-21 06:57:21 51°13.679 2°55.735 3.9 298 18.3 101520 83
2002-08-21 06:57:25 51°13.679 2°55.733 4.6 302 18.3 101530 83
2002-08-21 06:57:31 51°13.678 2°55.73 9.7 306 18.3 101530 83
2002-08-21 06:57:37 51°13.679 2°55.729 9.3 293 18.3 101520 83
2002-08-21 06:57:41 51°13.679 2°55.729 9.2 312 18.3 101520 83
2002-08-21 06:57:46 51°13.679 2°55.729 8.6 311 18.3 101510 83
2002-08-21 06:57:51 51°13.68 2°55.731 10.4 291 18.3 101510 83
2002-08-21 06:57:56 51°13.681 2°55.732 10.2 289 18.3 101520 83
2002-08-21 06:58:01 51°13.683 2°55.734 9.9 282 18.3 101520 83
2002-08-21 06:58:05 51°13.684 2°55.735 11 278 18.3 101520 83
2002-08-21 06:58:11 51°13.687 2°55.736 10 264 18.3 101520 83
2002-08-21 06:58:16 51°13.69 2°55.737 10.9 267 18.3 101510 83
2002-08-21 06:58:21 51°13.693 2°55.737 12.9 261 18.3 101510 83
2002-08-21 06:58:26 51°13.696 2°55.737 12 263 18.3 101510 83
2002-08-21 06:58:31 51°13.7 2°55.736 12.1 256 18.3 101510 83
2002-08-21 06:58:36 51°13.704 2°55.735 12.1 251 18.3 101490 83
2002-08-21 06:58:41 51°13.708 2°55.732 13.1 248 18.3 101490 83
2002-08-21 06:58:46 51°13.713 2°55.729 11.8 241 18.3 101490 83
2002-08-21 06:58:51 51°13.718 2°55.725 14.3 242 18.3 101490 83
2002-08-21 06:58:56 51°13.723 2°55.72 12.3 240 18.3 101490 83
2002-08-21 06:59:01 51°13.728 2°55.716 13.5 237 18.3 101490 83
2002-08-21 06:59:05 51°13.733 2°55.712 12.4 243 18.2 101480 83
2002-08-21 06:59:11 51°13.74 2°55.706 13.2 241 18.2 101480 83
2002-08-21 06:59:16 51°13.746 2°55.701 13.7 246 18.3 101480 83
2002-08-21 06:59:21 51°13.753 2°55.695 14.1 240 18.3 101480 83
2002-08-21 06:59:25 51°13.758 2°55.691 12.6 233 18.3 101490 84
2002-08-21 06:59:32 51°13.768 2°55.683 14.6 234 18.3 101490 84
2002-08-21 06:59:36 51°13.774 2°55.679 13.2 233 18.3 101480 84
2002-08-21 06:59:41 51°13.782 2°55.673 12.8 232 18.3 101480 84
2002-08-21 06:59:46 51°13.79 2°55.668 13.3 235 18.3 101480 84
2002-08-21 06:59:51 51°13.798 2°55.662 13.1 236 18.3 101480 84
2002-08-21 06:59:56 51°13.806 2°55.657 14.3 232 18.3 101480 84
2002-08-21 07:00:01 51°13.814 2°55.652 13.6 226 18.3 101480 84
2002-08-21 07:00:06 51°13.823 2°55.646 14.1 232 18.3 101480 84
2002-08-21 07:00:11 51°13.831 2°55.641 15.8 226 18.3 101480 84
2002-08-21 07:00:16 51°13.84 2°55.635 14.9 236 18.3 101480 84
2002-08-21 07:00:21 51°13.848 2°55.63 15.5 238 18.3 101480 84
2002-08-21 07:00:27 51°13.859 2°55.623 14 237 18.3 101470 84
2002-08-21 07:00:31 51°13.866 2°55.619 15.1 239 18.3 101470 84
2002-08-21 07:00:36 51°13.875 2°55.614 15 230 18.3 101480 84
2002-08-21 07:00:41 51°13.884 2°55.608 13.8 236 18.3 101480 84
2002-08-21 07:00:45 51°13.891 2°55.603 14.3 226 18.3 101480 84
2002-08-21 07:00:52 51°13.904 2°55.595 16.5 228 18.3 101480 84
2002-08-21 07:00:57 51°13.913 2°55.589 15 227 18.3 101470 83
2002-08-21 07:01:01 51°13.92 2°55.584 14.9 234 18.3 101470 83
2002-08-21 07:01:05 51°13.927 2°55.579 15.4 230 18.3 101480 83
2002-08-21 07:01:11 51°13.938 2°55.572 14.8 236 18.3 101480 83
2002-08-21 07:01:16 51°13.947 2°55.566 13.5 230 18.3 101480 83
2002-08-21 07:01:21 51°13.957 2°55.561 14.7 228 18.3 101480 83
2002-08-21 07:01:26 51°13.966 2°55.555 14.5 229 18.3 101500 83
2002-08-21 07:01:32 51°13.977 2°55.548 14.9 231 18.3 101500 83
2002-08-21 07:01:37 51°13.986 2°55.542 14.1 233 18.3 101480 83
2002-08-21 07:01:41 51°13.993 2°55.538 14.1 233 18.3 101480 83
2002-08-21 07:01:46 51°14.003 2°55.532 14 235 18.3 101480 82
2002-08-21 07:01:51 51°14.012 2°55.527 14.9 232 18.3 101480 82
2002-08-21 07:01:56 51°14.021 2°55.521 14.8 235 18.3 101480 82
2002-08-21 07:02:01 51°14.03 2°55.515 13 233 18.3 101480 82
2002-08-21 07:02:06 51°14.039 2°55.509 12.8 229 18.3 101490 82
2002-08-21 07:02:11 51°14.048 2°55.503 14.2 231 18.3 101490 82
2002-08-21 07:02:16 51°14.057 2°55.497 16.3 229 18.3 101490 82
2002-08-21 07:02:21 51°14.066 2°55.491 14.5 231 18.3 101490 82
2002-08-21 07:02:25 51°14.073 2°55.485 14 231 18.3 101480 83
2002-08-21 07:02:31 51°14.084 2°55.476 17.4 222 18.3 101480 83
2002-08-21 07:02:36 51°14.093 2°55.469 14.4 226 18.3 101480 82
2002-08-21 07:02:41 51°14.101 2°55.461 14 236 18.3 101480 82
2002-08-21 07:02:46 51°14.109 2°55.453 13.3 232 18.3 101490 82
2002-08-21 07:02:52 51°14.12 2°55.444 12.3 232 18.3 101490 82
2002-08-21 07:02:56 51°14.126 2°55.437 14.7 225 18.3 101480 82
2002-08-21 07:03:01 51°14.135 2°55.429 12.9 225 18.3 101480 82
2002-08-21 07:03:06 51°14.143 2°55.421 14.9 232 18.3 101480 82
2002-08-21 07:03:11 51°14.151 2°55.412 13.5 132 18.3 101480 82
2002-08-21 07:03:17 51°14.161 2°55.401 15 220 18.3 101490 83
2002-08-21 07:03:21 51°14.168 2°55.393 11.4 221 18.3 101490 83
2002-08-21 07:03:26 51°14.176 2°55.383 12.6 224 18.3 101490 83
2002-08-21 07:03:31 51°14.184 2°55.373 14 223 18.3 101490 83
2002-08-21 07:03:36 51°14.192 2°55.363 12.9 220 18.3 101480 83
2002-08-21 07:03:41 51°14.2 2°55.353 12.9 224 18.3 101480 83
2002-08-21 07:03:46 51°14.208 2°55.342 13 229 18.3 101500 83
2002-08-21 07:03:52 51°14.217 2°55.328 11.5 223 18.3 101500 83
2002-08-21 07:03:57 51°14.225 2°55.317 14 225 18.3 101480 83
2002-08-21 07:04:01 51°14.231 2°55.308 14.7 227 18.3 101480 83
2002-08-21 07:04:05 51°14.237 2°55.299 15.7 224 18.3 101500 83
2002-08-21 07:04:11 51°14.246 2°55.285 10.6 134 18.3 101500 83
2002-08-21 07:04:16 51°14.253 2°55.273 13.7 220 18.3 101490 83
2002-08-21 07:04:21 51°14.26 2°55.262 13.5 217 18.3 101490 83
2002-08-21 07:04:26 51°14.266 2°55.25 11.8 225 18.3 101490 83
2002-08-21 07:04:31 51°14.273 2°55.238 13.6 229 18.3 101490 83
2002-08-21 07:04:36 51°14.279 2°55.227 13.8 228 18.3 101490 83
2002-08-21 07:04:41 51°14.285 2°55.214 12.7 220 18.3 101490 83
2002-08-21 07:04:45 51°14.29 2°55.205 11.8 207 18.3 101500 83
2002-08-21 07:04:52 51°14.298 2°55.187 12.6 217 18.3 101500 83
2002-08-21 07:04:57 51°14.305 2°55.175 12.7 218 18.3 101510 83
2002-08-21 07:05:01 51°14.309 2°55.165 13.6 216 18.3 101510 83
2002-08-21 07:05:07 51°14.317 2°55.151 16 216 18.3 101490 84
2002-08-21 07:05:12 51°14.322 2°55.138 15.8 214 18.3 101490 84
2002-08-21 07:05:16 51°14.327 2°55.128 15.9 215 18.4 101490 84
2002-08-21 07:05:21 51°14.333 2°55.116 16.1 215 18.4 101490 84
2002-08-21 07:05:25 51°14.337 2°55.107 15 215 18.4 101500 85
2002-08-21 07:05:32 51°14.345 2°55.089 14 217 18.4 101500 85
2002-08-21 07:05:36 51°14.35 2°55.079 15.5 221 18.3 101470 84
2002-08-21 07:05:41 51°14.356 2°55.067 15.2 223 18.3 101470 84
2002-08-21 07:05:45 51°14.361 2°55.057 15.6 223 18.3 101480 83
2002-08-21 07:05:51 51°14.37 2°55.041 15.4 220 18.3 101480 83
2002-08-21 07:05:56 51°14.376 2°55.028 14.2 222 18.3 101480 83
2002-08-21 07:06:01 51°14.384 2°55.015 15.8 225 18.3 101480 83
2002-08-21 07:06:06 51°14.391 2°55.001 14.9 226 18.3 101480 84
2002-08-21 07:06:11 51°14.399 2°54.987 15.8 224 18.3 101480 84
2002-08-21 07:06:16 51°14.407 2°54.974 15 224 18.3 101480 84
2002-08-21 07:06:21 51°14.415 2°54.962 13.3 231 18.3 101480 84
2002-08-21 07:06:25 51°14.421 2°54.952 16.1 316 18.3 101500 84
2002-08-21 07:06:32 51°14.433 2°54.935 16.5 229 18.3 101500 84
2002-08-21 07:06:36 51°14.44 2°54.926 16.2 230 18.3 101490 84
2002-08-21 07:06:41 51°14.45 2°54.915 18.1 235 18.3 101490 84
2002-08-21 07:06:46 51°14.459 2°54.906 16 235 18.4 101500 84
2002-08-21 07:06:51 51°14.468 2°54.898 17 236 18.4 101500 84
2002-08-21 07:06:56 51°14.478 2°54.89 17 238 18.3 101490 84
2002-08-21 07:07:01 51°14.488 2°54.881 17.2 233 18.3 101490 84
2002-08-21 07:07:06 51°14.498 2°54.873 15.6 235 18.3 101490 83
2002-08-21 07:07:12 51°14.51 2°54.862 16.4 233 18.3 101490 83
2002-08-21 07:07:16 51°14.518 2°54.855 15.4 233 18.3 101470 83
2002-08-21 07:07:21 51°14.528 2°54.846 15.2 233 18.3 101470 83
2002-08-21 07:07:27 51°14.541 2°54.836 15.4 231 18.3 101460 83
2002-08-21 07:07:31 51°14.549 2°54.829 14.4 239 18.3 101460 83
2002-08-21 07:07:36 51°14.56 2°54.82 17.4 235 18.3 101490 83
2002-08-21 07:07:41 51°14.57 2°54.812 17.4 234 18.3 101490 83
2002-08-21 07:07:45 51°14.578 2°54.804 16 235 18.3 101470 83
2002-08-21 07:07:51 51°14.59 2°54.794 17.3 233 18.3 101470 83
2002-08-21 07:07:56 51°14.6 2°54.785 17.1 233 18.3 101470 84
2002-08-21 07:08:01 51°14.609 2°54.776 16.4 232 18.3 101470 84
2002-08-21 07:08:05 51°14.616 2°54.769 16.1 232 18.3 101470 83
2002-08-21 07:08:11 51°14.627 2°54.759 17.3 233 18.3 101470 83
2002-08-21 07:08:16 51°14.635 2°54.751 17.3 234 18.2 101480 83
2002-08-21 07:08:21 51°14.644 2°54.742 17.9 236 18.2 101480 83
2002-08-21 07:08:25 51°14.651 2°54.735 17.7 234 18.2 101480 83
2002-08-21 07:08:31 51°14.661 2°54.725 15.9 237 18.2 101480 83
2002-08-21 07:08:36 51°14.67 2°54.718 16.8 238 18.2 101470 83
2002-08-21 07:08:41 51°14.678 2°54.711 15.5 241 18.2 101470 83
2002-08-21 07:08:45 51°14.685 2°54.704 16.1 237 18.2 101480 83
2002-08-21 07:08:51 51°14.695 2°54.696 16.5 237 18.2 101480 83
2002-08-21 07:08:56 51°14.704 2°54.688 16.8 238 18.2 101470 82
2002-08-21 07:09:01 51°14.712 2°54.681 15.4 240 18.2 101470 82
2002-08-21 07:09:05 51°14.718 2°54.675 15.1 242 18.2 101470 83
2002-08-21 07:09:11 51°14.728 2°54.666 15.4 243 18.2 101470 83
2002-08-21 07:09:16 51°14.736 2°54.659 15.7 241 18.2 101470 83
2002-08-21 07:09:21 51°14.744 2°54.653 14.9 245 18.2 101470 83
2002-08-21 07:09:25 51°14.751 2°54.647 14.1 243 18.1 101480 82
2002-08-21 07:09:31 51°14.763 2°54.64 17.6 247 18.1 101480 82
2002-08-21 07:09:36 51°14.773 2°54.635 18.2 248 18.1 101440 83
2002-08-21 07:09:41 51°14.785 2°54.631 17.3 249 18.1 101440 83
2002-08-21 07:09:47 51°14.8 2°54.627 16 253 18.1 101470 83
2002-08-21 07:09:51 51°14.81 2°54.625 17.8 258 18.1 101470 83
2002-08-21 07:09:56 51°14.824 2°54.622 17.3 252 18.1 101470 83
2002-08-21 07:10:01 51°14.838 2°54.619 17 251 18.1 101470 83
2002-08-21 07:10:05 51°14.85 2°54.617 18 246 18.1 101450 83
2002-08-21 07:10:11 51°14.868 2°54.616 17.9 244 18.1 101450 83
2002-08-21 07:10:17 51°14.886 2°54.614 17.3 245 18.2 101430 83
2002-08-21 07:10:21 51°14.899 2°54.613 17.1 243 18.2 101430 83
2002-08-21 07:10:26 51°14.915 2°54.61 17.7 243 18.2 101430 83
2002-08-21 07:10:31 51°14.93 2°54.606 17.2 242 18.2 101430 83
2002-08-21 07:10:36 51°14.946 2°54.604 17.6 244 18.2 101430 83
2002-08-21 07:10:41 51°14.962 2°54.601 17 254 18.2 101430 83
2002-08-21 07:10:45 51°14.975 2°54.6 18.4 247 18.2 101470 84
2002-08-21 07:10:52 51°14.997 2°54.595 17 247 18.2 101470 84
2002-08-21 07:10:56 51°15.01 2°54.593 16.4 251 18.2 101430 84
2002-08-21 07:11:01 51°15.026 2°54.59 17.8 251 18.2 101430 84
2002-08-21 07:11:05 51°15.038 2°54.589 18.5 247 18.2 101460 84
2002-08-21 07:11:11 51°15.057 2°54.586 18.1 250 18.2 101460 84
2002-08-21 07:11:16 51°15.073 2°54.584 19 246 18.3 101450 84
2002-08-21 07:11:21 51°15.089 2°54.581 18.3 248 18.3 101450 84
2002-08-21 07:11:25 51°15.101 2°54.578 19.2 247 18.3 101460 84
2002-08-21 07:11:31 51°15.12 2°54.574 20.7 248 18.3 101460 84
2002-08-21 07:11:36 51°15.136 2°54.571 18.9 249 18.3 101410 84
2002-08-21 07:11:41 51°15.151 2°54.566 18 249 18.3 101410 84
2002-08-21 07:11:45 51°15.164 2°54.564 16.6 250 18.3 101420 84
2002-08-21 07:11:51 51°15.183 2°54.558 16.9 250 18.3 101420 84
2002-08-21 07:11:56 51°15.199 2°54.554 17.5 249 18.2 101440 83
2002-08-21 07:12:01 51°15.215 2°54.548 18.4 247 18.2 101440 83
2002-08-21 07:12:05 51°15.228 2°54.544 18.5 248 18.2 101470 83
2002-08-21 07:12:11 51°15.248 2°54.538 19.2 246 18.2 101470 83
2002-08-21 07:12:16 51°15.263 2°54.533 17.4 247 18.2 101480 83
2002-08-21 07:12:21 51°15.279 2°54.527 17 248 18.2 101480 83
2002-08-21 07:12:26 51°15.295 2°54.522 16.5 248 18.2 101480 83
2002-08-21 07:12:32 51°15.315 2°54.516 18 247 18.2 101480 83
2002-08-21 07:12:36 51°15.327 2°54.511 19.4 247 18.2 101470 83
2002-08-21 07:12:41 51°15.344 2°54.506 18.3 248 18.2 101470 83
2002-08-21 07:12:47 51°15.363 2°54.499 18.1 248 18.2 101470 83
2002-08-21 07:12:51 51°15.376 2°54.495 20.7 248 18.2 101470 83
2002-08-21 07:12:56 51°15.393 2°54.49 18.7 248 18.2 101470 84
2002-08-21 07:13:01 51°15.41 2°54.485 18.4 250 18.2 101470 84
2002-08-21 07:13:07 51°15.429 2°54.478 17.9 247 18.2 101480 84
2002-08-21 07:13:11 51°15.443 2°54.474 19.7 247 18.2 101480 84
2002-08-21 07:13:16 51°15.46 2°54.468 19.2 248 18.2 101450 84
2002-08-21 07:13:21 51°15.477 2°54.463 19.6 246 18.2 101450 84
2002-08-21 07:13:25 51°15.49 2°54.457 19.4 245 18.2 101470 84
2002-08-21 07:13:31 51°15.511 2°54.452 18.1 245 18.2 101470 84
2002-08-21 07:13:36 51°15.528 2°54.445 17.8 243 18.2 101480 84
2002-08-21 07:13:41 51°15.545 2°54.44 17.3 242 18.2 101480 84
2002-08-21 07:13:46 51°15.562 2°54.434 21.5 238 18.2 101470 84
2002-08-21 07:13:51 51°15.58 2°54.429 18.5 240 18.2 101470 84
2002-08-21 07:13:56 51°15.597 2°54.423 19.4 237 18.2 101470 84
2002-08-21 07:14:01 51°15.614 2°54.418 17.8 239 18.2 101470 84
2002-08-21 07:14:05 51°15.628 2°54.412 19.2 237 18.2 101480 84
2002-08-21 07:14:11 51°15.649 2°54.407 17.9 236 18.2 101480 84
2002-08-21 07:14:16 51°15.666 2°54.401 17.9 239 18.2 101470 83
2002-08-21 07:14:21 51°15.684 2°54.395 18.8 241 18.2 101470 83
2002-08-21 07:14:25 51°15.698 2°54.391 20.5 238 18.1 101460 83
2002-08-21 07:14:32 51°15.722 2°54.381 18.7 240 18.1 101460 83
2002-08-21 07:14:36 51°15.737 2°54.377 17.5 240 18.2 101470 84
2002-08-21 07:14:41 51°15.754 2°54.37 19.2 247 18.2 101470 84
2002-08-21 07:14:45 51°15.768 2°54.366 19 242 18.2 101480 84
2002-08-21 07:14:52 51°15.792 2°54.356 18.7 245 18.2 101480 84
2002-08-21 07:14:56 51°15.806 2°54.353 17.8 244 18.2 101480 84
2002-08-21 07:15:01 51°15.824 2°54.346 19.1 243 18.2 101480 84
2002-08-21 07:15:06 51°15.841 2°54.341 17.4 241 18.2 101480 84
2002-08-21 07:15:12 51°15.861 2°54.334 18.4 242 18.2 101480 84
2002-08-21 07:15:16 51°15.875 2°54.33 19.2 248 18.2 101470 84
2002-08-21 07:15:21 51°15.892 2°54.325 19.4 247 18.2 101470 84
2002-08-21 07:15:25 51°15.906 2°54.321 19.5 246 18.2 101480 84
2002-08-21 07:15:31 51°15.926 2°54.316 20 247 18.2 101480 84
2002-08-21 07:15:36 51°15.943 2°54.312 18.2 251 18.2 101480 84
2002-08-21 07:15:41 51°15.96 2°54.307 19 248 18.2 101480 84
2002-08-21 07:15:45 51°15.973 2°54.304 20.1 250 18.2 101460 84
2002-08-21 07:15:51 51°15.991 2°54.298 15.7 250 18.2 101460 84
2002-08-21 07:15:56 51°16.005 2°54.294 16.8 249 18.1 101460 83
2002-08-21 07:16:01 51°16.018 2°54.29 16.7 253 18.1 101460 83
2002-08-21 07:16:05 51°16.028 2°54.287 15.3 251 18.1 101460 83
2002-08-21 07:16:11 51°16.042 2°54.284 16.6 256 18.1 101460 83
2002-08-21 07:16:16 51°16.053 2°54.282 16.6 257 18.1 101470 83
2002-08-21 07:16:21 51°16.062 2°54.281 15.2 261 18.1 101470 83
2002-08-21 07:16:25 51°16.069 2°54.282 15.7 263 18.1 101470 83
2002-08-21 07:16:31 51°16.079 2°54.283 13.2 263 18.1 101470 83
2002-08-21 07:16:36 51°16.087 2°54.284 13.4 272 18.1 101480 83
2002-08-21 07:16:41 51°16.094 2°54.286 13.3 275 18.1 101480 83
2002-08-21 07:16:46 51°16.1 2°54.288 13.3 267 18.1 101460 83
2002-08-21 07:16:51 51°16.106 2°54.29 13.8 263 18.1 101460 83
2002-08-21 07:16:56 51°16.111 2°54.292 11.3 270 18.1 101470 84
2002-08-21 07:17:01 51°16.116 2°54.293 12.1 272 18.1 101470 84
2002-08-21 07:17:05 51°16.119 2°54.295 11.2 284 18.1 101480 84
2002-08-21 07:17:11 51°16.124 2°54.297 12.7 275 18.1 101480 84
2002-08-21 07:17:16 51°16.128 2°54.298 12 279 18.2 101480 84
2002-08-21 07:17:21 51°16.131 2°54.3 14 277 18.2 101480 84
2002-08-21 07:17:25 51°16.133 2°54.302 13.3 278 18.2 101480 85
2002-08-21 07:17:31 51°16.137 2°54.304 13.2 278 18.2 101480 85
2002-08-21 07:17:36 51°16.139 2°54.306 12.9 276 18.2 101480 85
2002-08-21 07:17:41 51°16.142 2°54.308 13.1 287 18.2 101480 85
2002-08-21 07:17:45 51°16.143 2°54.309 12.2 280 18.2 101490 84
2002-08-21 07:17:52 51°16.146 2°54.311 10 285 18.2 101490 84
2002-08-21 07:17:56 51°16.148 2°54.313 12.4 287 18.1 101490 83
2002-08-21 07:18:01 51°16.15 2°54.314 11.7 282 18.1 101490 83
2002-08-21 07:18:06 51°16.152 2°54.316 12.7 286 18.1 101490 83
2002-08-21 07:18:11 51°16.154 2°54.318 13 285 18.1 101490 83
2002-08-21 07:18:16 51°16.156 2°54.32 12.6 281 18.1 101490 84
2002-08-21 07:18:21 51°16.159 2°54.321 12.7 285 18.1 101490 84
2002-08-21 07:18:26 51°16.162 2°54.323 12.8 285 18.1 101490 84
2002-08-21 07:18:31 51°16.164 2°54.325 13.4 283 18.1 101490 84
2002-08-21 07:18:37 51°16.168 2°54.327 12 276 18.2 101490 84
2002-08-21 07:18:41 51°16.171 2°54.328 12.4 280 18.2 101490 84
2002-08-21 07:18:45 51°16.173 2°54.329 12.6 273 18.2 101490 84
2002-08-21 07:18:51 51°16.177 2°54.33 11 274 18.2 101490 84
2002-08-21 07:18:56 51°16.181 2°54.332 11.9 275 18.1 101490 84
2002-08-21 07:19:01 51°16.185 2°54.333 13.6 274 18.1 101490 84
2002-08-21 07:19:06 51°16.188 2°54.334 12.4 272 18.2 101490 84
2002-08-21 07:19:11 51°16.192 2°54.335 11.5 266 18.2 101490 84
2002-08-21 07:19:16 51°16.196 2°54.335 11.9 260 18.2 101490 84
2002-08-21 07:19:21 51°16.2 2°54.336 12.9 267 18.2 101490 84
2002-08-21 07:19:26 51°16.204 2°54.336 11.6 263 18.2 101490 84
2002-08-21 07:19:31 51°16.208 2°54.336 13.7 263 18.2 101490 84
2002-08-21 07:19:36 51°16.212 2°54.337 14.2 260 18.2 101500 85
2002-08-21 07:19:41 51°16.215 2°54.338 13.9 265 18.2 101500 85
2002-08-21 07:19:45 51°16.218 2°54.338 15.2 265 18.2 101490 85
2002-08-21 07:19:51 51°16.221 2°54.338 13.9 262 18.2 101490 85
2002-08-21 07:19:56 51°16.224 2°54.337 12.8 265 18.2 101490 84
2002-08-21 07:20:01 51°16.226 2°54.337 12.5 265 18.2 101490 84
2002-08-21 07:20:06 51°16.227 2°54.337 12.8 266 18.1 101490 83
2002-08-21 07:20:12 51°16.229 2°54.336 12 266 18.1 101490 83
2002-08-21 07:20:16 51°16.23 2°54.336 11.6 266 18.1 101480 83
2002-08-21 07:20:21 51°16.232 2°54.336 12.2 260 18.1 101480 83
2002-08-21 07:20:26 51°16.233 2°54.335 11 268 18.1 101490 83
2002-08-21 07:20:31 51°16.234 2°54.335 10.8 272 18.1 101490 83
2002-08-21 07:20:36 51°16.235 2°54.335 10.5 264 18.1 101500 83
2002-08-21 07:20:41 51°16.235 2°54.335 11.8 273 18.1 101500 83
2002-08-21 07:20:45 51°16.236 2°54.335 10.3 281 18.1 101500 83
2002-08-21 07:20:52 51°16.236 2°54.335 12.2 276 18.1 101500 83
2002-08-21 07:20:56 51°16.236 2°54.335 12.3 280 18.1 101490 83
2002-08-21 07:21:01 51°16.236 2°54.335 10.9 277 18.1 101490 83
2002-08-21 07:21:05 51°16.236 2°54.334 10.8 280 18.1 101510 84
2002-08-21 07:21:12 51°16.235 2°54.334 11.2 279 18.1 101510 84
2002-08-21 07:21:16 51°16.235 2°54.334 11.3 279 18.1 101490 84
2002-08-21 07:21:21 51°16.234 2°54.333 11.4 281 18.1 101490 84
2002-08-21 07:21:25 51°16.234 2°54.333 11.1 282 18.1 101490 84
2002-08-21 07:21:31 51°16.233 2°54.333 9.8 284 18.1 101490 84
2002-08-21 07:21:36 51°16.233 2°54.333 9.9 286 18.1 101490 84
2002-08-21 07:21:41 51°16.232 2°54.332 8.8 282 18.1 101490 84
2002-08-21 07:21:47 51°16.23 2°54.331 9.1 283 18.1 101490 84
2002-08-21 07:21:52 51°16.229 2°54.33 9.8 278 18.1 101490 84
2002-08-21 07:21:56 51°16.228 2°54.33 10 285 18.1 101500 84
2002-08-21 07:22:01 51°16.227 2°54.329 10.9 281 18.1 101500 84
2002-08-21 07:22:05 51°16.226 2°54.328 10.5 286 18.2 101500 85
2002-08-21 07:22:11 51°16.224 2°54.327 12.1 284 18.2 101500 85
2002-08-21 07:22:16 51°16.223 2°54.327 12 283 18.2 101500 85
2002-08-21 07:22:21 51°16.222 2°54.326 12 289 18.2 101500 85
2002-08-21 07:22:25 51°16.221 2°54.326 11.8 286 18.2 101500 85
2002-08-21 07:22:31 51°16.219 2°54.326 11.6 286 18.2 101500 85
2002-08-21 07:22:36 51°16.218 2°54.325 10.7 293 18.3 101500 85
2002-08-21 07:22:41 51°16.217 2°54.324 11 290 18.3 101500 85
2002-08-21 07:22:46 51°16.215 2°54.323 11.1 291 18.3 101500 85
2002-08-21 07:22:51 51°16.214 2°54.323 11.4 295 18.3 101500 85
2002-08-21 07:22:56 51°16.212 2°54.322 9.8 283 18.3 101490 85
2002-08-21 07:23:01 51°16.211 2°54.321 11.8 295 18.3 101490 85
2002-08-21 07:23:05 51°16.209 2°54.321 12.5 292 18.2 101490 84
2002-08-21 07:23:11 51°16.208 2°54.321 9.7 290 18.2 101490 84
2002-08-21 07:23:16 51°16.206 2°54.321 12.5 291 18.2 101490 84
2002-08-21 07:23:21 51°16.205 2°54.321 11.8 288 18.2 101490 84
2002-08-21 07:23:25 51°16.204 2°54.322 12.7 291 18.2 101500 84
2002-08-21 07:23:32 51°16.202 2°54.322 12.7 291 18.2 101500 84
2002-08-21 07:23:36 51°16.201 2°54.322 11.2 288 18.2 101490 84
2002-08-21 07:23:41 51°16.2 2°54.321 12.1 287 18.2 101490 84
2002-08-21 07:23:46 51°16.199 2°54.322 12.7 293 18.1 101490 84
2002-08-21 07:23:51 51°16.198 2°54.323 12 291 18.1 101490 84
2002-08-21 07:23:56 51°16.197 2°54.323 12.7 291 18.2 101490 84
2002-08-21 07:24:01 51°16.195 2°54.323 11.7 289 18.2 101490 84
2002-08-21 07:24:06 51°16.194 2°54.323 11.1 285 18.2 101500 84
2002-08-21 07:24:11 51°16.194 2°54.323 12.1 290 18.2 101500 84
2002-08-21 07:24:16 51°16.193 2°54.323 10.7 285 18.2 101480 84
2002-08-21 07:24:21 51°16.192 2°54.322 11.5 284 18.2 101480 84
2002-08-21 07:24:26 51°16.192 2°54.323 12.1 283 18.2 101500 84
2002-08-21 07:24:31 51°16.191 2°54.323 11.2 286 18.2 101500 84
2002-08-21 07:24:36 51°16.191 2°54.322 9.9 279 18.2 101500 84
2002-08-21 07:24:41 51°16.19 2°54.322 11.3 281 18.2 101500 84
2002-08-21 07:24:46 51°16.189 2°54.322 11.2 278 18.2 101490 84
2002-08-21 07:24:51 51°16.188 2°54.321 11 279 18.2 101490 84
2002-08-21 07:24:56 51°16.188 2°54.32 10.4 280 18.2 101500 84
2002-08-21 07:25:01 51°16.187 2°54.32 11.1 282 18.2 101500 84
2002-08-21 07:25:05 51°16.187 2°54.32 10.6 282 18.2 101500 84
2002-08-21 07:25:11 51°16.185 2°54.32 11.2 273 18.2 101500 84
2002-08-21 07:25:16 51°16.185 2°54.32 10.9 275 18.2 101500 84
2002-08-21 07:25:21 51°16.184 2°54.32 10.8 274 18.2 101500 84
2002-08-21 07:25:25 51°16.183 2°54.318 11.2 281 18.2 101500 84
2002-08-21 07:25:32 51°16.182 2°54.318 10.6 278 18.2 101500 84
2002-08-21 07:25:36 51°16.181 2°54.317 10.1 276 18.2 101500 84
2002-08-21 07:25:41 51°16.18 2°54.317 11.1 283 18.2 101500 84
2002-08-21 07:25:46 51°16.179 2°54.316 11.5 277 18.2 101500 84
2002-08-21 07:25:51 51°16.178 2°54.316 11.4 283 18.2 101500 84
2002-08-21 07:25:56 51°16.177 2°54.315 12.1 282 18.2 101490 84
2002-08-21 07:26:01 51°16.176 2°54.315 10.8 288 18.2 101490 84
2002-08-21 07:26:05 51°16.175 2°54.314 9.3 284 18.2 101500 84
2002-08-21 07:26:11 51°16.173 2°54.314 10.4 291 18.2 101500 84
2002-08-21 07:26:16 51°16.172 2°54.313 9.9 291 18.2 101500 84
2002-08-21 07:26:21 51°16.171 2°54.312 10.7 286 18.2 101500 84
2002-08-21 07:26:25 51°16.171 2°54.312 11.1 292 18.2 101490 84
2002-08-21 07:26:32 51°16.169 2°54.311 11 288 18.2 101490 84
2002-08-21 07:26:37 51°16.168 2°54.31 11.1 294 18.2 101510 85
2002-08-21 07:26:41 51°16.168 2°54.31 9.9 283 18.2 101510 85
2002-08-21 07:26:45 51°16.167 2°54.309 10.3 283 18.3 101500 85
2002-08-21 07:26:51 51°16.166 2°54.309 10.6 291 18.3 101500 85
2002-08-21 07:26:56 51°16.165 2°54.308 10.9 280 18.2 101500 85
2002-08-21 07:27:01 51°16.164 2°54.308 11.5 286 18.2 101500 85
2002-08-21 07:27:07 51°16.163 2°54.307 12.4 279 18.2 101490 84
2002-08-21 07:27:11 51°16.162 2°54.306 9.8 274 18.2 101490 84
2002-08-21 07:27:17 51°16.161 2°54.306 10.8 271 18.2 101510 85
2002-08-21 07:27:21 51°16.161 2°54.305 11.1 260 18.2 101510 85
2002-08-21 07:27:26 51°16.16 2°54.304 10.9 272 18.2 101490 85
2002-08-21 07:27:31 51°16.159 2°54.303 9.8 267 18.2 101490 85
2002-08-21 07:27:36 51°16.158 2°54.303 10 271 18.2 101490 85
2002-08-21 07:27:41 51°16.157 2°54.302 9.3 270 18.2 101490 85
2002-08-21 07:27:45 51°16.156 2°54.301 9.7 268 18.3 101500 85
2002-08-21 07:27:51 51°16.155 2°54.3 11.1 265 18.3 101500 85
2002-08-21 07:27:56 51°16.154 2°54.299 12.7 266 18.2 101500 85
2002-08-21 07:28:01 51°16.153 2°54.298 12.2 268 18.2 101500 85
2002-08-21 07:28:05 51°16.152 2°54.297 12.3 263 18.3 101500 85
2002-08-21 07:28:11 51°16.151 2°54.296 11.2 267 18.3 101500 85
2002-08-21 07:28:16 51°16.15 2°54.295 10.7 267 18.2 101500 84
2002-08-21 07:28:21 51°16.15 2°54.294 12.9 266 18.2 101500 84
2002-08-21 07:28:25 51°16.149 2°54.293 13.3 263 18.2 101480 83
2002-08-21 07:28:31 51°16.149 2°54.292 11.8 267 18.2 101480 83
2002-08-21 07:28:36 51°16.149 2°54.291 11.1 266 18.1 101490 83
2002-08-21 07:28:41 51°16.148 2°54.29 11.3 266 18.1 101490 83
2002-08-21 07:28:46 51°16.148 2°54.289 12.3 266 18.1 101500 84
2002-08-21 07:28:51 51°16.147 2°54.288 11.8 265 18.1 101500 84
2002-08-21 07:28:56 51°16.147 2°54.287 12.3 262 18.1 101490 83
2002-08-21 07:29:01 51°16.146 2°54.286 11.9 253 18.1 101490 83
2002-08-21 07:29:06 51°16.146 2°54.285 11.8 257 18.1 101490 83
2002-08-21 07:29:11 51°16.146 2°54.284 11.8 249 18.1 101490 83
2002-08-21 07:29:16 51°16.145 2°54.282 11.8 254 18.1 101500 83
2002-08-21 07:29:21 51°16.145 2°54.281 12.1 252 18.1 101500 83
2002-08-21 07:29:25 51°16.145 2°54.28 12.3 256 18.1 101490 83
2002-08-21 07:29:31 51°16.145 2°54.278 11.3 250 18.1 101490 83
2002-08-21 07:29:36 51°16.145 2°54.276 11.5 251 18.1 101510 83
2002-08-21 07:29:41 51°16.144 2°54.275 12.2 254 18.1 101510 83
2002-08-21 07:29:46 51°16.145 2°54.273 13 252 18.1 101500 83
2002-08-21 07:29:51 51°16.145 2°54.272 11.9 253 18.1 101500 83
2002-08-21 07:29:57 51°16.145 2°54.27 13.1 251 18 101490 83
2002-08-21 07:30:01 51°16.144 2°54.269 13.1 254 18 101490 83
2002-08-21 07:30:05 51°16.144 2°54.267 14.1 254 18.1 101500 83
2002-08-21 07:30:12 51°16.144 2°54.265 13.5 256 18.1 101500 83
2002-08-21 07:30:16 51°16.144 2°54.264 12.5 262 18.1 101500 83
2002-08-21 07:30:21 51°16.144 2°54.264 12.8 259 18.1 101500 83
2002-08-21 07:30:25 51°16.144 2°54.262 12.3 263 18.1 101500 83
2002-08-21 07:30:32 51°16.145 2°54.26 14 259 18.1 101500 83
2002-08-21 07:30:36 51°16.145 2°54.259 12.2 258 18 101500 83
2002-08-21 07:30:41 51°16.145 2°54.258 13.3 260 18 101500 83
2002-08-21 07:30:46 51°16.145 2°54.257 13.1 264 18 101480 83
2002-08-21 07:30:51 51°16.145 2°54.256 12.1 262 18 101480 83
2002-08-21 07:30:56 51°16.146 2°54.255 12.9 263 18 101490 82
2002-08-21 07:31:01 51°16.146 2°54.254 12.9 257 18 101490 82
2002-08-21 07:31:05 51°16.146 2°54.254 13.3 264 18 101480 82
2002-08-21 07:31:11 51°16.147 2°54.253 12.7 258 18 101480 82
2002-08-21 07:31:16 51°16.147 2°54.251 11 266 18 101490 82
2002-08-21 07:31:21 51°16.147 2°54.251 11.8 270 18 101490 82
2002-08-21 07:31:26 51°16.147 2°54.25 10.3 276 18 101490 83
2002-08-21 07:31:31 51°16.148 2°54.25 10.3 280 18 101490 83
2002-08-21 07:31:37 51°16.148 2°54.25 11.9 278 18 101480 83
2002-08-21 07:31:41 51°16.148 2°54.25 12.2 280 18 101480 83
2002-08-21 07:31:46 51°16.148 2°54.25 11 283 18 101480 83
2002-08-21 07:31:52 51°16.149 2°54.251 10.5 282 18 101480 83
2002-08-21 07:31:56 51°16.15 2°54.251 11.4 282 18.1 101500 84
2002-08-21 07:32:01 51°16.15 2°54.251 11.2 278 18.1 101500 84
2002-08-21 07:32:05 51°16.151 2°54.251 11.3 279 18.1 101490 84
2002-08-21 07:32:11 51°16.151 2°54.252 11 288 18.1 101490 84
2002-08-21 07:32:16 51°16.152 2°54.253 10.6 287 18.1 101500 84
2002-08-21 07:32:21 51°16.153 2°54.253 12.7 282 18.1 101500 84
2002-08-21 07:32:27 51°16.154 2°54.255 12.5 284 18.1 101490 84
2002-08-21 07:32:32 51°16.155 2°54.255 12.3 281 18.1 101490 84
2002-08-21 07:32:36 51°16.156 2°54.255 11.7 288 18.1 101500 83
2002-08-21 07:32:41 51°16.158 2°54.255 10.9 288 18.1 101500 83
2002-08-21 07:32:46 51°16.159 2°54.255 11.5 284 18.1 101490 83
2002-08-21 07:32:51 51°16.161 2°54.256 11 292 18.1 101490 83
2002-08-21 07:32:56 51°16.161 2°54.257 11.5 279 18 101500 83
2002-08-21 07:33:01 51°16.162 2°54.258 13.1 280 18 101500 83
2002-08-21 07:33:05 51°16.163 2°54.258 13.6 281 18.1 101490 83
2002-08-21 07:33:12 51°16.165 2°54.259 12.8 276 18.1 101490 83
2002-08-21 07:33:16 51°16.166 2°54.259 12.6 281 18.1 101500 84
2002-08-21 07:33:21 51°16.167 2°54.26 11.4 277 18.1 101500 84
2002-08-21 07:33:26 51°16.169 2°54.26 12.9 275 18.1 101490 83
2002-08-21 07:33:32 51°16.17 2°54.261 13 275 18.1 101490 83
2002-08-21 07:33:36 51°16.172 2°54.261 13.1 273 18.1 101490 83
2002-08-21 07:33:41 51°16.173 2°54.261 12.5 275 18.1 101490 83
2002-08-21 07:33:46 51°16.174 2°54.261 12.6 272 18.1 101500 83
2002-08-21 07:33:52 51°16.176 2°54.261 12.3 270 18.1 101500 83
2002-08-21 07:33:56 51°16.177 2°54.261 11.2 275 18.1 101490 83
2002-08-21 07:34:01 51°16.178 2°54.262 11.6 277 18.1 101490 83
2002-08-21 07:34:06 51°16.179 2°54.262 12.8 275 18.1 101490 83
2002-08-21 07:34:11 51°16.18 2°54.262 12.8 282 18.1 101490 83
2002-08-21 07:34:16 51°16.18 2°54.263 13.3 274 18.1 101490 83
2002-08-21 07:34:21 51°16.181 2°54.263 12.5 281 18.1 101490 83
2002-08-21 07:34:25 51°16.181 2°54.264 12.8 280 18.1 101500 83
2002-08-21 07:34:32 51°16.182 2°54.264 12.6 277 18.1 101500 83
2002-08-21 07:34:36 51°16.182 2°54.266 12.1 277 18.1 101480 83
2002-08-21 07:34:41 51°16.183 2°54.266 13.2 274 18.1 101480 83
2002-08-21 07:34:45 51°16.183 2°54.266 13.6 278 18.1 101490 83
2002-08-21 07:34:51 51°16.183 2°54.266 13.7 282 18.1 101490 83
2002-08-21 07:34:56 51°16.182 2°54.267 12.9 281 18.1 101500 83
2002-08-21 07:35:01 51°16.182 2°54.267 11.7 279 18.1 101500 83
2002-08-21 07:35:05 51°16.182 2°54.268 13.4 281 18.1 101490 82
2002-08-21 07:35:12 51°16.182 2°54.269 12.7 285 18.1 101490 82
2002-08-21 07:35:16 51°16.182 2°54.269 10.4 277 18 101490 82
2002-08-21 07:35:21 51°16.181 2°54.269 12.3 284 18 101490 82
2002-08-21 07:35:27 51°16.18 2°54.27 12.5 284 18 101500 81
2002-08-21 07:35:32 51°16.179 2°54.271 14.8 292 18 101500 81
2002-08-21 07:35:36 51°16.178 2°54.27 13.5 298 18 101480 82
2002-08-21 07:35:41 51°16.176 2°54.271 13.2 298 18 101480 82
2002-08-21 07:35:46 51°16.175 2°54.271 13.1 298 18 101490 82
2002-08-21 07:35:51 51°16.174 2°54.272 12.8 296 18 101490 82
2002-08-21 07:35:56 51°16.173 2°54.271 10.3 291 18 101500 82
2002-08-21 07:36:01 51°16.171 2°54.271 13.3 295 18 101500 82
2002-08-21 07:36:06 51°16.169 2°54.271 11.7 295 18 101480 82
2002-08-21 07:36:11 51°16.168 2°54.271 12.4 291 18 101480 82
2002-08-21 07:36:16 51°16.167 2°54.271 12.2 293 18 101500 82
2002-08-21 07:36:21 51°16.165 2°54.271 13 295 18 101500 82
2002-08-21 07:36:26 51°16.164 2°54.272 12.3 290 18 101500 82
2002-08-21 07:36:32 51°16.163 2°54.272 12.5 293 18 101500 82
2002-08-21 07:36:37 51°16.161 2°54.272 11.7 293 18.1 101500 82
2002-08-21 07:36:41 51°16.161 2°54.271 12.7 290 18.1 101500 82
2002-08-21 07:36:45 51°16.16 2°54.272 13.4 291 18.1 101500 82
2002-08-21 07:36:51 51°16.159 2°54.271 14.1 289 18.1 101500 82
2002-08-21 07:36:56 51°16.158 2°54.272 12 286 18.1 101500 82
2002-08-21 07:37:01 51°16.157 2°54.272 12 285 18.1 101500 82
2002-08-21 07:37:06 51°16.157 2°54.272 12.6 288 18.1 101500 82
2002-08-21 07:37:12 51°16.156 2°54.272 11.6 287 18.1 101500 82
2002-08-21 07:37:16 51°16.155 2°54.272 11.9 290 18.1 101490 82
2002-08-21 07:37:21 51°16.155 2°54.272 12.6 288 18.1 101490 82
2002-08-21 07:37:26 51°16.154 2°54.272 11.8 287 18.1 101490 82
2002-08-21 07:37:31 51°16.154 2°54.271 11.6 286 18.1 101490 82
2002-08-21 07:37:37 51°16.153 2°54.271 12 280 18.1 101500 82
2002-08-21 07:37:41 51°16.153 2°54.27 10.3 287 18.1 101500 82
2002-08-21 07:37:45 51°16.152 2°54.27 11.7 275 18.1 101500 82
2002-08-21 07:37:51 51°16.152 2°54.27 13.1 270 18.1 101500 82
2002-08-21 07:37:56 51°16.152 2°54.27 13.6 272 18.1 101500 82
2002-08-21 07:38:01 51°16.152 2°54.269 12.2 271 18.1 101500 82
2002-08-21 07:38:06 51°16.152 2°54.269 11.2 274 18.1 101500 83
2002-08-21 07:38:11 51°16.152 2°54.269 12.1 276 18.1 101500 83
2002-08-21 07:38:16 51°16.153 2°54.268 11.7 270 18.1 101500 82
2002-08-21 07:38:21 51°16.153 2°54.268 11.3 281 18.1 101500 82
2002-08-21 07:38:27 51°16.153 2°54.268 10.7 273 18.1 101490 82
2002-08-21 07:38:32 51°16.153 2°54.268 12 277 18.1 101490 82
2002-08-21 07:38:36 51°16.154 2°54.268 11.3 275 18.1 101510 82
2002-08-21 07:38:41 51°16.154 2°54.267 10.7 274 18.1 101510 82
2002-08-21 07:38:45 51°16.154 2°54.268 10.9 286 18.1 101490 82
2002-08-21 07:38:51 51°16.154 2°54.268 12.1 282 18.1 101490 82
2002-08-21 07:38:56 51°16.154 2°54.268 13.1 282 18.1 101500 83
2002-08-21 07:39:01 51°16.154 2°54.268 12.1 279 18.1 101500 83
2002-08-21 07:39:05 51°16.154 2°54.268 11.8 282 18.1 101500 83
2002-08-21 07:39:12 51°16.154 2°54.269 11 274 18.1 101500 83
2002-08-21 07:39:16 51°16.155 2°54.27 9.9 277 18.1 101510 83
2002-08-21 07:39:21 51°16.155 2°54.27 11.1 286 18.1 101510 83
2002-08-21 07:39:26 51°16.155 2°54.271 12.1 282 18.1 101500 83
2002-08-21 07:39:31 51°16.154 2°54.271 12 286 18.1 101500 83
2002-08-21 07:39:37 51°16.154 2°54.271 11.9 283 18.1 101500 83
2002-08-21 07:39:41 51°16.155 2°54.272 13.6 278 18.1 101500 83
2002-08-21 07:39:45 51°16.155 2°54.272 12.3 279 18.2 101510 83
2002-08-21 07:39:51 51°16.155 2°54.273 11.3 281 18.2 101510 83
2002-08-21 07:39:56 51°16.155 2°54.274 12.3 283 18.1 101490 83
2002-08-21 07:40:01 51°16.155 2°54.274 12.1 288 18.1 101490 83
2002-08-21 07:40:05 51°16.155 2°54.274 11.9 285 18.1 101500 83
2002-08-21 07:40:12 51°16.155 2°54.274 12.8 281 18.1 101500 83
2002-08-21 07:40:16 51°16.155 2°54.275 14.1 285 18.1 101500 83
2002-08-21 07:40:21 51°16.156 2°54.275 13.2 285 18.1 101500 83
2002-08-21 07:40:26 51°16.156 2°54.276 13.4 284 18.1 101500 83
2002-08-21 07:40:32 51°16.157 2°54.276 12.7 286 18.1 101500 83
2002-08-21 07:40:37 51°16.157 2°54.277 12.9 289 18.1 101500 83
2002-08-21 07:40:41 51°16.157 2°54.278 11.7 283 18.1 101500 83
2002-08-21 07:40:45 51°16.158 2°54.279 11.9 282 18.1 101490 83
2002-08-21 07:40:51 51°16.158 2°54.28 12.4 288 18.1 101490 83
2002-08-21 07:40:56 51°16.159 2°54.281 13.8 286 18.1 101490 83
2002-08-21 07:41:01 51°16.16 2°54.282 13.1 285 18.1 101490 83
2002-08-21 07:41:07 51°16.161 2°54.283 14.2 288 18.1 101500 82
2002-08-21 07:41:12 51°16.162 2°54.285 13.4 282 18.1 101500 82
2002-08-21 07:41:16 51°16.164 2°54.287 13.5 280 18.1 101500 82
2002-08-21 07:41:21 51°16.167 2°54.289 11.4 279 18.1 101500 82
2002-08-21 07:41:26 51°16.171 2°54.291 12.8 279 18.1 101490 82
2002-08-21 07:41:31 51°16.175 2°54.293 14.5 267 18.1 101490 82
2002-08-21 07:41:36 51°16.181 2°54.295 14.8 266 18.1 101490 82
2002-08-21 07:41:41 51°16.188 2°54.296 16.4 259 18.1 101490 82
2002-08-21 07:41:45 51°16.194 2°54.295 16.4 261 18.1 101490 83
2002-08-21 07:41:51 51°16.203 2°54.293 16.7 250 18.1 101490 83
2002-08-21 07:41:56 51°16.212 2°54.289 16 246 18.1 101480 83
2002-08-21 07:42:01 51°16.221 2°54.283 15.8 236 18.1 101480 83
2002-08-21 07:42:05 51°16.228 2°54.277 16 238 18.1 101480 82
2002-08-21 07:42:12 51°16.241 2°54.263 16.3 229 18.1 101480 82
2002-08-21 07:42:17 51°16.249 2°54.249 15.4 227 18.1 101470 82
2002-08-21 07:42:21 51°16.256 2°54.237 15.7 225 18.1 101470 82
2002-08-21 07:42:26 51°16.265 2°54.221 16.5 315 18.1 101500 82
2002-08-21 07:42:31 51°16.273 2°54.203 16.5 226 18.1 101500 82
2002-08-21 07:42:36 51°16.283 2°54.185 17.9 226 18.1 101500 82
2002-08-21 07:42:41 51°16.292 2°54.166 17.2 225 18.1 101500 82
2002-08-21 07:42:47 51°16.304 2°54.143 17.7 226 18.1 101510 82
2002-08-21 07:42:52 51°16.314 2°54.123 17.8 224 18.1 101510 82
2002-08-21 07:42:56 51°16.323 2°54.108 17.4 225 18.1 101510 82
2002-08-21 07:43:01 51°16.334 2°54.087 18.1 224 18.1 101510 82
2002-08-21 07:43:06 51°16.345 2°54.067 16 227 18.1 101500 83
2002-08-21 07:43:12 51°16.358 2°54.042 18.2 224 18.1 101500 83
2002-08-21 07:43:16 51°16.366 2°54.026 17.9 223 18.1 101500 82
2002-08-21 07:43:21 51°16.376 2°54.004 17.3 225 18.1 101500 82
2002-08-21 07:43:27 51°16.389 2°53.978 18.7 225 18.1 101520 82
2002-08-21 07:43:31 51°16.397 2°53.961 19.1 225 18.1 101520 82
2002-08-21 07:43:36 51°16.408 2°53.939 15.8 224 18.1 101500 83
2002-08-21 07:43:41 51°16.418 2°53.917 17.6 223 18.1 101500 83
2002-08-21 07:43:45 51°16.427 2°53.9 17.9 224 18.1 101500 82
2002-08-21 07:43:51 51°16.439 2°53.874 17.9 226 18.1 101500 82
2002-08-21 07:43:56 51°16.45 2°53.852 18.9 229 18.1 101500 82
2002-08-21 07:44:01 51°16.461 2°53.831 20.5 225 18.1 101500 82
2002-08-21 07:44:05 51°16.47 2°53.814 18.8 227 18.1 101510 83
2002-08-21 07:44:11 51°16.483 2°53.787 18.8 226 18.1 101510 83
2002-08-21 07:44:16 51°16.494 2°53.765 19.1 226 18.1 101510 83
2002-08-21 07:44:21 51°16.505 2°53.742 18.9 223 18.1 101510 83
2002-08-21 07:44:27 51°16.519 2°53.716 19 221 18 101500 83
2002-08-21 07:44:32 51°16.531 2°53.694 17.9 224 18 101500 83
2002-08-21 07:44:36 51°16.54 2°53.676 18.5 222 18 101510 82
2002-08-21 07:44:41 51°16.551 2°53.653 18.5 222 18 101510 82
2002-08-21 07:44:45 51°16.561 2°53.635 17.7 221 18 101490 82
2002-08-21 07:44:52 51°16.577 2°53.604 18.5 220 18 101490 82
2002-08-21 07:44:56 51°16.586 2°53.586 17.6 218 18 101510 83
2002-08-21 07:45:01 51°16.597 2°53.563 17.5 222 18 101510 83
2002-08-21 07:45:06 51°16.609 2°53.541 19 219 18 101500 82
2002-08-21 07:45:12 51°16.623 2°53.514 18 225 18 101500 82
2002-08-21 07:45:16 51°16.632 2°53.496 19.2 222 18 101500 82
2002-08-21 07:45:21 51°16.645 2°53.475 18.9 223 18 101500 82
2002-08-21 07:45:26 51°16.656 2°53.452 18.3 219 18 101500 83
2002-08-21 07:45:32 51°16.67 2°53.426 19.5 222 18 101500 83
2002-08-21 07:45:36 51°16.68 2°53.408 17.6 222 18 101500 83
2002-08-21 07:45:41 51°16.691 2°53.386 17.7 223 18 101500 83
2002-08-21 07:45:45 51°16.701 2°53.369 16.8 315 18 101510 83
2002-08-21 07:45:51 51°16.714 2°53.343 17.4 225 18 101510 83
2002-08-21 07:45:56 51°16.726 2°53.32 17.5 219 18 101510 83
2002-08-21 07:46:01 51°16.737 2°53.298 17.3 316 18 101510 83
2002-08-21 07:46:06 51°16.749 2°53.276 15.9 226 18.1 101510 83
2002-08-21 07:46:11 51°16.76 2°53.254 14.7 223 18.1 101510 83
2002-08-21 07:46:16 51°16.772 2°53.233 16.8 225 18.1 101510 83
2002-08-21 07:46:21 51°16.783 2°53.211 15.7 220 18.1 101510 83
2002-08-21 07:46:26 51°16.795 2°53.191 17.7 225 18.1 101510 83
2002-08-21 07:46:31 51°16.806 2°53.169 15.7 226 18.1 101510 83
2002-08-21 07:46:36 51°16.818 2°53.148 17.1 226 18.1 101510 84
2002-08-21 07:46:41 51°16.83 2°53.128 18.4 135 18.1 101510 84
2002-08-21 07:46:46 51°16.841 2°53.107 18.2 225 18.1 101510 84
2002-08-21 07:46:51 51°16.853 2°53.088 18.1 224 18.1 101510 84
2002-08-21 07:46:57 51°16.867 2°53.062 19.5 224 18.1 101510 85
2002-08-21 07:47:01 51°16.877 2°53.046 17.6 226 18.1 101510 85
2002-08-21 07:47:06 51°16.887 2°53.024 18 227 18.1 101510 85
2002-08-21 07:47:11 51°16.899 2°53.004 17.2 224 18.1 101510 85
2002-08-21 07:47:16 51°16.91 2°52.983 18.1 234 18.1 101510 84
2002-08-21 07:47:21 51°16.923 2°52.962 18 226 18.1 101510 84
2002-08-21 07:47:27 51°16.936 2°52.936 17.8 135 18 101500 84
2002-08-21 07:47:32 51°16.948 2°52.915 19.4 224 18 101500 84
2002-08-21 07:47:36 51°16.957 2°52.897 18.1 222 18 101500 84
2002-08-21 07:47:41 51°16.969 2°52.876 17.5 225 18 101500 84
2002-08-21 07:47:46 51°16.98 2°52.854 20.7 223 17.9 101520 84
2002-08-21 07:47:51 51°16.992 2°52.833 17.7 222 17.9 101520 84
2002-08-21 07:47:56 51°17.003 2°52.811 17.8 221 17.9 101500 84
2002-08-21 07:48:02 51°17.017 2°52.785 16.8 220 17.9 101500 84
2002-08-21 07:48:07 51°17.029 2°52.764 16.7 224 17.9 101500 84
2002-08-21 07:48:11 51°17.038 2°52.746 17.7 224 17.9 101500 84
2002-08-21 07:48:16 51°17.05 2°52.724 17.9 221 17.9 101500 84
2002-08-21 07:48:21 51°17.062 2°52.703 19.8 220 17.9 101500 84
2002-08-21 07:48:26 51°17.073 2°52.68 18.1 219 17.9 101520 84
2002-08-21 07:48:31 51°17.086 2°52.659 20.6 221 17.9 101520 84
2002-08-21 07:48:36 51°17.096 2°52.637 16.1 218 17.9 101500 84
2002-08-21 07:48:41 51°17.108 2°52.616 17.8 219 17.9 101500 84
2002-08-21 07:48:46 51°17.119 2°52.595 16.3 221 17.8 101490 83
2002-08-21 07:48:51 51°17.131 2°52.574 15.9 315 17.8 101490 83
2002-08-21 07:48:56 51°17.141 2°52.553 15.2 223 17.8 101500 83
2002-08-21 07:49:01 51°17.152 2°52.532 17 224 17.8 101500 83
2002-08-21 07:49:06 51°17.164 2°52.511 16.5 225 17.8 101520 84
2002-08-21 07:49:11 51°17.175 2°52.49 16.8 224 17.8 101520 84
2002-08-21 07:49:16 51°17.187 2°52.469 15.7 215 17.9 101530 84
2002-08-21 07:49:21 51°17.199 2°52.448 16.8 217 17.9 101530 84
2002-08-21 07:49:25 51°17.208 2°52.43 16.3 224 17.9 101510 84
2002-08-21 07:49:32 51°17.225 2°52.4 16.9 223 17.9 101510 84
2002-08-21 07:49:36 51°17.235 2°52.383 17.3 222 17.9 101510 84
2002-08-21 07:49:41 51°17.247 2°52.361 15.7 225 17.9 101510 84
2002-08-21 07:49:45 51°17.256 2°52.343 18.3 225 18 101520 84
2002-08-21 07:49:51 51°17.27 2°52.317 16.7 222 18 101520 84
2002-08-21 07:49:56 51°17.282 2°52.294 19.1 223 18 101510 85
2002-08-21 07:50:01 51°17.293 2°52.272 18.6 221 18 101510 85
2002-08-21 07:50:05 51°17.303 2°52.255 17.1 221 18 101530 85
2002-08-21 07:50:11 51°17.317 2°52.228 16.6 224 18 101530 85
2002-08-21 07:50:16 51°17.33 2°52.207 18.4 220 18 101500 85
2002-08-21 07:50:21 51°17.341 2°52.184 18.1 219 18 101500 85
2002-08-21 07:50:27 51°17.355 2°52.157 18.8 220 18 101510 84
2002-08-21 07:50:31 51°17.365 2°52.139 17.6 219 18 101510 84
2002-08-21 07:50:36 51°17.378 2°52.117 17.1 223 18 101520 85
2002-08-21 07:50:41 51°17.39 2°52.095 17.4 223 18 101520 85
2002-08-21 07:50:45 51°17.4 2°52.078 16.7 223 18 101510 85
2002-08-21 07:50:51 51°17.415 2°52.052 16.3 224 18 101510 85
2002-08-21 07:50:56 51°17.428 2°52.031 17.4 223 18 101510 84
2002-08-21 07:51:01 51°17.44 2°52.009 16.2 224 18 101510 84
2002-08-21 07:51:05 51°17.451 2°51.993 15.6 230 18 101510 85
2002-08-21 07:51:11 51°17.466 2°51.967 17.1 230 18 101510 85
2002-08-21 07:51:16 51°17.479 2°51.947 16 227 18.1 101510 85
2002-08-21 07:51:21 51°17.492 2°51.926 14.6 223 18.1 101510 85
2002-08-21 07:51:27 51°17.508 2°51.903 16.3 226 18.1 101510 85
2002-08-21 07:51:32 51°17.521 2°51.883 16.2 226 18.1 101510 85
2002-08-21 07:51:37 51°17.534 2°51.864 16.6 220 18.1 101520 85
2002-08-21 07:51:41 51°17.544 2°51.848 17.3 226 18.1 101520 85
2002-08-21 07:51:46 51°17.557 2°51.829 15.7 222 18.1 101510 85
2002-08-21 07:51:51 51°17.571 2°51.812 15.6 225 18.1 101510 85
2002-08-21 07:51:56 51°17.584 2°51.792 15.8 231 18.1 101510 86
2002-08-21 07:52:01 51°17.599 2°51.775 17.4 222 18.1 101510 86
2002-08-21 07:52:06 51°17.612 2°51.756 17 221 18.2 101510 86
2002-08-21 07:52:12 51°17.629 2°51.736 18.2 222 18.2 101510 86
2002-08-21 07:52:16 51°17.64 2°51.72 18.5 225 18.1 101520 85
2002-08-21 07:52:21 51°17.655 2°51.702 19.2 222 18.1 101520 85
2002-08-21 07:52:25 51°17.665 2°51.687 17.9 223 18.1 101520 86
2002-08-21 07:52:31 51°17.682 2°51.666 17.7 225 18.1 101520 86
2002-08-21 07:52:36 51°17.696 2°51.648 17.9 225 18.1 101520 85
2002-08-21 07:52:41 51°17.711 2°51.63 18.5 227 18.1 101520 85
2002-08-21 07:52:45 51°17.722 2°51.616 17.1 227 18.1 101510 84
2002-08-21 07:52:51 51°17.739 2°51.594 16.9 228 18.1 101510 84
2002-08-21 07:52:56 51°17.752 2°51.576 16.9 230 18 101520 84
2002-08-21 07:53:01 51°17.766 2°51.559 16.2 225 18 101520 84
2002-08-21 07:53:07 51°17.781 2°51.538 16.2 221 18 101510 84
2002-08-21 07:53:12 51°17.795 2°51.52 17.8 221 18 101510 84
2002-08-21 07:53:16 51°17.805 2°51.507 18.5 224 17.9 101510 84
2002-08-21 07:53:21 51°17.818 2°51.49 18.4 225 17.9 101510 84
2002-08-21 07:53:26 51°17.832 2°51.473 16.7 226 17.9 101530 85
2002-08-21 07:53:32 51°17.848 2°51.452 15.8 224 17.9 101530 85
2002-08-21 07:53:36 51°17.859 2°51.439 19.7 221 17.8 101520 86
2002-08-21 07:53:41 51°17.872 2°51.422 18.3 224 17.8 101520 86
2002-08-21 07:53:46 51°17.886 2°51.404 18.2 226 17.8 101510 86
2002-08-21 07:53:52 51°17.904 2°51.383 17 315 17.8 101510 86
2002-08-21 07:53:56 51°17.915 2°51.369 15.9 224 17.7 101510 86
2002-08-21 07:54:01 51°17.929 2°51.351 17.1 227 17.7 101510 86
2002-08-21 07:54:07 51°17.946 2°51.33 17.4 231 17.6 101510 86
2002-08-21 07:54:11 51°17.958 2°51.316 17.5 228 17.6 101510 86
2002-08-21 07:54:16 51°17.973 2°51.298 15.8 229 17.5 101520 87
2002-08-21 07:54:21 51°17.987 2°51.28 21 228 17.5 101520 87
2002-08-21 07:54:25 51°17.998 2°51.265 17.3 229 17.5 101520 87
2002-08-21 07:54:31 51°18.015 2°51.244 18.5 228 17.5 101520 87
2002-08-21 07:54:36 51°18.03 2°51.226 20.1 230 17.4 101520 87
2002-08-21 07:54:41 51°18.044 2°51.21 18.1 230 17.4 101520 87
2002-08-21 07:54:45 51°18.056 2°51.197 20.7 231 17.4 101530 88
2002-08-21 07:54:52 51°18.078 2°51.177 18.5 232 17.4 101530 88
2002-08-21 07:54:56 51°18.09 2°51.165 17.4 234 17.3 101530 88
2002-08-21 07:55:01 51°18.106 2°51.152 18.2 237 17.3 101530 88
2002-08-21 07:55:05 51°18.119 2°51.141 18.7 236 17.3 101510 87
2002-08-21 07:55:12 51°18.142 2°51.125 18.4 238 17.3 101510 87
2002-08-21 07:55:16 51°18.156 2°51.117 17.4 238 17.2 101510 87
2002-08-21 07:55:21 51°18.172 2°51.108 16.8 238 17.2 101510 87
2002-08-21 07:55:25 51°18.185 2°51.102 17.1 240 17.1 101520 88
2002-08-21 07:55:31 51°18.203 2°51.092 15.9 240 17.1 101520 88
2002-08-21 07:55:36 51°18.218 2°51.084 16.9 235 17.1 101510 88
2002-08-21 07:55:41 51°18.232 2°51.075 14.8 240 17.1 101510 88
2002-08-21 07:55:46 51°18.246 2°51.068 17.4 237 17 101530 88
2002-08-21 07:55:51 51°18.259 2°51.06 16.2 237 17 101530 88
2002-08-21 07:55:56 51°18.273 2°51.053 16.7 235 17 101500 88
2002-08-21 07:56:01 51°18.286 2°51.047 17.9 239 17 101500 88
2002-08-21 07:56:05 51°18.295 2°51.042 14.4 237 17 101520 89
2002-08-21 07:56:11 51°18.307 2°51.035 13.9 245 17 101520 89
2002-08-21 07:56:16 51°18.316 2°51.031 16.1 242 17.1 101510 89
2002-08-21 07:56:21 51°18.324 2°51.027 12.6 246 17.1 101510 89
2002-08-21 07:56:27 51°18.33 2°51.024 12.7 244 17 101510 89
2002-08-21 07:56:32 51°18.335 2°51.021 12 243 17 101510 89
2002-08-21 07:56:36 51°18.338 2°51.019 13 244 17 101530 89
2002-08-21 07:56:41 51°18.342 2°51.017 12.2 247 17 101530 89
2002-08-21 07:56:45 51°18.345 2°51.015 11.8 247 17 101520 89
2002-08-21 07:56:52 51°18.349 2°51.011 11 244 17 101520 89
2002-08-21 07:56:57 51°18.353 2°51.009 11.6 240 16.9 101510 89
2002-08-21 07:57:01 51°18.356 2°51.006 11.8 247 16.9 101510 89
2002-08-21 07:57:05 51°18.358 2°51.004 12.3 248 16.9 101520 89
2002-08-21 07:57:11 51°18.362 2°51 13.3 240 16.9 101520 89
2002-08-21 07:57:16 51°18.366 2°50.997 11.3 242 16.9 101520 90
2002-08-21 07:57:21 51°18.369 2°50.995 12.4 239 16.9 101520 90
2002-08-21 07:57:25 51°18.372 2°50.993 11.3 256 17 101520 90
2002-08-21 07:57:31 51°18.376 2°50.99 13.7 253 17 101520 90
2002-08-21 07:57:36 51°18.379 2°50.988 13 255 17 101520 90
2002-08-21 07:57:41 51°18.382 2°50.987 13.3 258 17 101520 90
2002-08-21 07:57:47 51°18.386 2°50.985 12.2 259 17 101520 90
2002-08-21 07:57:52 51°18.39 2°50.985 12.8 259 17 101520 90
2002-08-21 07:57:56 51°18.392 2°50.985 12.6 266 16.9 101510 90
2002-08-21 07:58:01 51°18.395 2°50.985 12.5 267 16.9 101510 90
2002-08-21 07:58:06 51°18.399 2°50.985 11.6 267 16.9 101510 90
2002-08-21 07:58:11 51°18.402 2°50.987 11.6 273 16.9 101510 90
2002-08-21 07:58:16 51°18.405 2°50.988 10.7 274 16.9 101520 90
2002-08-21 07:58:21 51°18.409 2°50.99 12.8 277 16.9 101520 90
2002-08-21 07:58:27 51°18.413 2°50.993 13.1 272 16.8 101520 90
2002-08-21 07:58:32 51°18.416 2°50.995 12.1 270 16.8 101520 90
2002-08-21 07:58:37 51°18.419 2°50.997 9.8 272 16.8 101520 90
2002-08-21 07:58:41 51°18.421 2°50.999 10.7 275 16.8 101520 90
2002-08-21 07:58:45 51°18.423 2°51 11.2 273 16.8 101530 90
2002-08-21 07:58:51 51°18.426 2°51.003 11.7 278 16.8 101530 90
2002-08-21 07:58:56 51°18.428 2°51.004 13.1 274 16.8 101520 90
2002-08-21 07:59:01 51°18.43 2°51.006 10.8 271 16.8 101520 90
2002-08-21 07:59:05 51°18.431 2°51.007 9.9 271 16.9 101530 90
2002-08-21 07:59:11 51°18.434 2°51.009 10 268 16.9 101530 90
2002-08-21 07:59:16 51°18.435 2°51.009 9.2 272 16.9 101520 90
2002-08-21 07:59:21 51°18.437 2°51.01 12.2 269 16.9 101520 90
2002-08-21 07:59:25 51°18.438 2°51.012 11.2 277 16.9 101520 91
2002-08-21 07:59:32 51°18.44 2°51.013 11.1 266 16.9 101520 91
2002-08-21 07:59:37 51°18.441 2°51.014 13.1 263 17 101530 91
2002-08-21 07:59:41 51°18.442 2°51.014 10.7 271 17 101530 91
2002-08-21 07:59:46 51°18.443 2°51.014 10.3 268 17 101510 91
2002-08-21 07:59:51 51°18.443 2°51.014 10.5 268 17 101510 91
2002-08-21 07:59:57 51°18.444 2°51.014 12.6 278 17 101510 91
2002-08-21 08:00:01 51°18.444 2°51.015 12.1 275 17 101510 91
2002-08-21 08:00:05 51°18.445 2°51.015 12.5 274 16.9 101500 90
2002-08-21 08:00:12 51°18.445 2°51.015 11 261 16.9 101500 90
2002-08-21 08:00:17 51°18.445 2°51.015 10.8 273 16.9 101520 90
2002-08-21 08:00:21 51°18.445 2°51.015 12.7 269 16.9 101520 90
2002-08-21 08:00:25 51°18.445 2°51.015 12.4 269 16.9 101510 90
2002-08-21 08:00:32 51°18.445 2°51.015 12.2 271 16.9 101510 90
2002-08-21 08:00:36 51°18.445 2°51.015 11 268 16.9 101510 90
2002-08-21 08:00:41 51°18.445 2°51.014 11.8 271 16.9 101510 90
2002-08-21 08:00:46 51°18.445 2°51.014 12.4 271 16.9 101510 90
2002-08-21 08:00:52 51°18.445 2°51.014 12.3 263 16.9 101510 90
2002-08-21 08:00:57 51°18.445 2°51.014 12.1 263 16.8 101520 90
2002-08-21 08:01:01 51°18.445 2°51.014 11.6 260 16.8 101520 90
2002-08-21 08:01:05 51°18.445 2°51.014 10.8 263 16.9 101510 90
2002-08-21 08:01:11 51°18.444 2°51.014 12.2 258 16.9 101510 90
2002-08-21 08:01:16 51°18.444 2°51.014 12.7 267 16.8 101520 90
2002-08-21 08:01:21 51°18.444 2°51.015 12.3 270 16.8 101520 90
2002-08-21 08:01:26 51°18.443 2°51.015 11.5 260 16.8 101510 90
2002-08-21 08:01:32 51°18.443 2°51.015 12.5 276 16.8 101510 90
2002-08-21 08:01:36 51°18.443 2°51.014 11.5 271 16.8 101500 90
2002-08-21 08:01:41 51°18.442 2°51.014 12.5 279 16.8 101500 90
2002-08-21 08:01:45 51°18.442 2°51.014 12.7 275 16.8 101510 90
2002-08-21 08:01:52 51°18.442 2°51.014 10.4 270 16.8 101510 90
2002-08-21 08:01:56 51°18.442 2°51.014 12 279 16.8 101520 90
2002-08-21 08:02:01 51°18.442 2°51.014 11.4 272 16.8 101520 90
2002-08-21 08:02:07 51°18.442 2°51.014 10.6 274 16.8 101520 90
2002-08-21 08:02:12 51°18.442 2°51.014 13.7 273 16.8 101520 90
2002-08-21 08:02:17 51°18.442 2°51.014 12.7 268 16.8 101510 90
2002-08-21 08:02:21 51°18.442 2°51.014 12.6 271 16.8 101510 90
2002-08-21 08:02:25 51°18.442 2°51.014 13.6 270 16.8 101520 90
2002-08-21 08:02:32 51°18.441 2°51.014 11.8 267 16.8 101520 90
2002-08-21 08:02:36 51°18.441 2°51.014 12.2 270 16.9 101510 90
2002-08-21 08:02:41 51°18.441 2°51.014 12.3 267 16.9 101510 90
2002-08-21 08:02:45 51°18.44 2°51.014 12.8 268 16.9 101520 90
2002-08-21 08:02:51 51°18.44 2°51.014 11.5 266 16.9 101520 90
2002-08-21 08:02:56 51°18.44 2°51.014 11.8 271 16.9 101510 90
2002-08-21 08:03:01 51°18.439 2°51.014 12.9 274 16.9 101510 90
2002-08-21 08:03:07 51°18.439 2°51.014 13.3 269 16.9 101510 90
2002-08-21 08:03:12 51°18.439 2°51.014 12.9 270 16.9 101510 90
2002-08-21 08:03:16 51°18.438 2°51.013 12.2 267 16.9 101510 90
2002-08-21 08:03:21 51°18.437 2°51.013 11.8 276 16.9 101510 90
2002-08-21 08:03:27 51°18.436 2°51.013 12.9 268 16.9 101510 90
2002-08-21 08:03:32 51°18.436 2°51.013 12.5 270 16.9 101510 90
2002-08-21 08:03:36 51°18.435 2°51.013 12.4 275 16.9 101510 90
2002-08-21 08:03:41 51°18.435 2°51.014 12.3 268 16.9 101510 90
2002-08-21 08:03:45 51°18.434 2°51.014 12 273 16.9 101520 90
2002-08-21 08:03:51 51°18.433 2°51.014 11.5 273 16.9 101520 90
2002-08-21 08:03:56 51°18.432 2°51.014 11.7 266 16.9 101520 90
2002-08-21 08:04:01 51°18.432 2°51.014 10.5 274 16.9 101520 90
2002-08-21 08:04:07 51°18.432 2°51.014 11.1 271 16.9 101510 89
2002-08-21 08:04:12 51°18.431 2°51.014 12.4 267 16.9 101510 89
2002-08-21 08:04:16 51°18.431 2°51.014 12.3 270 16.9 101510 89
2002-08-21 08:04:21 51°18.431 2°51.014 11.3 268 16.9 101510 89
2002-08-21 08:04:25 51°18.431 2°51.014 11 271 17 101520 89
2002-08-21 08:04:31 51°18.431 2°51.014 12.4 273 17 101520 89
2002-08-21 08:04:36 51°18.431 2°51.014 12.5 272 17 101520 89
2002-08-21 08:04:41 51°18.431 2°51.014 10.6 268 17 101520 89
2002-08-21 08:04:47 51°18.432 2°51.014 11 268 17 101510 89
2002-08-21 08:04:52 51°18.432 2°51.014 10.7 264 17 101510 89
2002-08-21 08:04:57 51°18.433 2°51.014 11 265 17.1 101520 89
2002-08-21 08:05:01 51°18.433 2°51.014 10.9 262 17.1 101520 89
2002-08-21 08:05:05 51°18.433 2°51.014 12.6 262 17.1 101510 89
2002-08-21 08:05:11 51°18.433 2°51.014 11.2 261 17.1 101510 89
2002-08-21 08:05:17 51°18.434 2°51.013 10 258 17.1 101520 89
2002-08-21 08:05:21 51°18.434 2°51.013 10.3 261 17.1 101520 89
2002-08-21 08:05:26 51°18.434 2°51.013 10.4 261 17.1 101520 89
2002-08-21 08:05:32 51°18.435 2°51.013 9.9 261 17.1 101520 89
2002-08-21 08:05:36 51°18.435 2°51.013 10.3 258 17.1 101520 89
2002-08-21 08:05:41 51°18.435 2°51.012 10.2 256 17.1 101520 89
2002-08-21 08:05:45 51°18.436 2°51.011 10.7 254 17.1 101540 88
2002-08-21 08:05:51 51°18.437 2°51.01 11.1 253 17.1 101540 88
2002-08-21 08:05:57 51°18.438 2°51.009 13.1 255 17.1 101530 88
2002-08-21 08:06:01 51°18.438 2°51.009 12.6 255 17.1 101530 88
2002-08-21 08:06:07 51°18.439 2°51.008 12.1 258 17.2 101530 88
2002-08-21 08:06:11 51°18.44 2°51.007 12.5 255 17.2 101530 88
2002-08-21 08:06:16 51°18.441 2°51.006 11.7 257 17.2 101540 88
2002-08-21 08:06:21 51°18.441 2°51.004 12.3 244 17.2 101540 88
2002-08-21 08:06:27 51°18.443 2°51.003 12.4 246 17.3 101530 88
2002-08-21 08:06:32 51°18.443 2°51.001 12.8 246 17.3 101530 88
2002-08-21 08:06:36 51°18.444 2°51 12.6 247 17.3 101520 88
2002-08-21 08:06:42 51°18.444 2°50.999 11.8 247 17.3 101520 88
2002-08-21 08:06:46 51°18.445 2°50.998 12.8 244 17.3 101530 88
2002-08-21 08:06:51 51°18.445 2°50.996 12 244 17.3 101530 88
2002-08-21 08:06:56 51°18.445 2°50.995 11 247 17.3 101530 88
2002-08-21 08:07:01 51°18.445 2°50.993 11.5 244 17.3 101530 88
2002-08-21 08:07:07 51°18.445 2°50.991 11.1 249 17.3 101530 87
2002-08-21 08:07:11 51°18.445 2°50.99 10.4 243 17.3 101530 87
2002-08-21 08:07:17 51°18.445 2°50.989 9.2 241 17.4 101530 87
2002-08-21 08:07:21 51°18.446 2°50.987 10.3 246 17.4 101530 87
2002-08-21 08:07:26 51°18.446 2°50.986 10.9 245 17.4 101540 87
2002-08-21 08:07:32 51°18.445 2°50.984 11.3 244 17.4 101540 87
2002-08-21 08:07:37 51°18.444 2°50.982 11.1 248 17.4 101540 87
2002-08-21 08:07:41 51°18.444 2°50.981 10.8 247 17.4 101540 87
2002-08-21 08:07:47 51°18.444 2°50.979 11.8 246 17.4 101530 87
2002-08-21 08:07:52 51°18.443 2°50.978 11.4 249 17.4 101530 87
2002-08-21 08:07:57 51°18.443 2°50.976 10.6 249 17.5 101530 87
2002-08-21 08:08:01 51°18.443 2°50.975 10.2 248 17.5 101530 87
2002-08-21 08:08:05 51°18.442 2°50.974 9.5 254 17.5 101540 87
2002-08-21 08:08:12 51°18.442 2°50.972 11.2 253 17.5 101540 87
2002-08-21 08:08:16 51°18.442 2°50.972 11 254 17.5 101540 87
2002-08-21 08:08:21 51°18.441 2°50.971 11 264 17.5 101540 87
2002-08-21 08:08:27 51°18.441 2°50.97 10.2 267 17.6 101530 86
2002-08-21 08:08:32 51°18.44 2°50.969 11.1 274 17.6 101530 86
2002-08-21 08:08:37 51°18.44 2°50.969 11.1 275 17.6 101530 86
2002-08-21 08:08:41 51°18.44 2°50.969 11.9 275 17.6 101530 86
2002-08-21 08:08:45 51°18.439 2°50.969 11.4 270 17.6 101530 86
2002-08-21 08:08:52 51°18.439 2°50.969 10.5 274 17.6 101530 86
2002-08-21 08:08:56 51°18.439 2°50.968 10.7 275 17.7 101530 86
2002-08-21 08:09:01 51°18.438 2°50.968 11.4 283 17.7 101530 86
2002-08-21 08:09:07 51°18.438 2°50.968 10.3 276 17.6 101530 86
2002-08-21 08:09:12 51°18.438 2°50.968 10 280 17.6 101530 86
2002-08-21 08:09:16 51°18.437 2°50.968 11.4 283 17.7 101530 86
2002-08-21 08:09:21 51°18.437 2°50.969 10.2 275 17.7 101530 86
2002-08-21 08:09:27 51°18.437 2°50.969 10 273 17.7 101530 86
2002-08-21 08:09:32 51°18.437 2°50.969 8.9 275 17.7 101530 86
2002-08-21 08:09:37 51°18.436 2°50.969 9.2 278 17.7 101530 86
2002-08-21 08:09:41 51°18.436 2°50.969 9.6 272 17.7 101530 86
2002-08-21 08:09:47 51°18.436 2°50.969 9.6 277 17.7 101530 86
2002-08-21 08:09:52 51°18.436 2°50.969 10 283 17.7 101530 86
2002-08-21 08:09:56 51°18.436 2°50.969 9.3 280 17.8 101530 86
2002-08-21 08:10:01 51°18.435 2°50.97 9.3 277 17.8 101530 86
2002-08-21 08:10:07 51°18.434 2°50.97 8.3 276 17.8 101530 86
2002-08-21 08:10:11 51°18.434 2°50.97 9.6 283 17.8 101530 86
2002-08-21 08:10:17 51°18.434 2°50.97 9.4 285 17.9 101530 86
2002-08-21 08:10:21 51°18.433 2°50.97 12.2 287 17.9 101530 86
2002-08-21 08:10:26 51°18.433 2°50.97 11 286 17.9 101530 86
2002-08-21 08:10:31 51°18.433 2°50.97 11 283 17.9 101530 86
2002-08-21 08:10:36 51°18.433 2°50.97 11.2 282 17.9 101540 86
2002-08-21 08:10:41 51°18.433 2°50.971 10.4 279 17.9 101540 86
2002-08-21 08:10:47 51°18.432 2°50.971 9.6 282 18 101540 86
2002-08-21 08:10:52 51°18.432 2°50.972 10.3 282 18 101540 86
2002-08-21 08:10:56 51°18.432 2°50.972 10.6 278 17.9 101540 86
2002-08-21 08:11:01 51°18.432 2°50.972 9.8 280 17.9 101540 86
2002-08-21 08:11:07 51°18.431 2°50.972 11.2 282 17.9 101530 85
2002-08-21 08:11:12 51°18.431 2°50.973 10.1 277 17.9 101530 85
2002-08-21 08:11:16 51°18.431 2°50.973 10.5 276 18 101540 85
2002-08-21 08:11:21 51°18.431 2°50.973 10.6 273 18 101540 85
2002-08-21 08:11:25 51°18.431 2°50.973 10.3 269 18 101540 85
2002-08-21 08:11:31 51°18.43 2°50.973 11.5 279 18 101540 85
2002-08-21 08:11:37 51°18.43 2°50.973 11.2 276 17.9 101530 85
2002-08-21 08:11:41 51°18.43 2°50.973 10.7 275 17.9 101530 85
2002-08-21 08:11:47 51°18.429 2°50.974 11 280 17.9 101530 85
2002-08-21 08:11:52 51°18.429 2°50.974 11.4 276 17.9 101530 85
2002-08-21 08:11:57 51°18.429 2°50.974 11.1 274 17.9 101530 84
2002-08-21 08:12:01 51°18.429 2°50.974 10.9 270 17.9 101530 84
2002-08-21 08:12:07 51°18.429 2°50.974 11.3 281 17.9 101530 84
2002-08-21 08:12:12 51°18.429 2°50.975 10 280 17.9 101530 84
2002-08-21 08:12:16 51°18.428 2°50.975 10.2 274 17.9 101530 84
2002-08-21 08:12:21 51°18.428 2°50.975 10.4 283 17.9 101530 84
2002-08-21 08:12:27 51°18.427 2°50.975 10.2 282 17.9 101530 84
2002-08-21 08:12:32 51°18.427 2°50.976 10.3 275 17.9 101530 84
2002-08-21 08:12:36 51°18.427 2°50.975 9.9 268 17.9 101530 84
2002-08-21 08:12:41 51°18.427 2°50.975 12.8 268 17.9 101530 84
2002-08-21 08:12:47 51°18.427 2°50.975 13.1 272 17.9 101540 85
2002-08-21 08:12:52 51°18.426 2°50.975 12.8 272 17.9 101540 85
2002-08-21 08:12:57 51°18.426 2°50.976 12.1 275 18 101540 85
2002-08-21 08:13:01 51°18.426 2°50.976 12 281 18 101540 85
2002-08-21 08:13:07 51°18.425 2°50.976 11.6 278 18 101540 84
2002-08-21 08:13:12 51°18.425 2°50.976 10.8 276 18 101540 84
2002-08-21 08:13:17 51°18.424 2°50.976 11.1 279 18 101520 84
2002-08-21 08:13:21 51°18.424 2°50.976 11.5 278 18 101520 84
2002-08-21 08:13:26 51°18.424 2°50.976 10.4 271 17.9 101540 83
2002-08-21 08:13:31 51°18.423 2°50.976 10.7 277 17.9 101540 83
2002-08-21 08:13:37 51°18.423 2°50.976 10.7 276 17.9 101530 83
2002-08-21 08:13:41 51°18.423 2°50.977 11.2 277 17.9 101530 83
2002-08-21 08:13:45 51°18.423 2°50.976 10.2 273 17.9 101540 83
2002-08-21 08:13:51 51°18.423 2°50.977 12.2 272 17.9 101540 83
2002-08-21 08:13:56 51°18.422 2°50.977 11.5 270 17.9 101540 83
2002-08-21 08:14:01 51°18.422 2°50.977 10.9 275 17.9 101540 83
2002-08-21 08:14:05 51°18.422 2°50.977 10.8 269 17.9 101530 83
2002-08-21 08:14:12 51°18.421 2°50.977 11.8 283 17.9 101530 83
2002-08-21 08:14:17 51°18.421 2°50.978 11 284 17.9 101540 83
2002-08-21 08:14:21 51°18.42 2°50.978 11.7 274 17.9 101540 83
2002-08-21 08:14:26 51°18.42 2°50.978 12.2 275 17.9 101540 83
2002-08-21 08:14:31 51°18.42 2°50.978 10.9 276 17.9 101540 83
2002-08-21 08:14:36 51°18.42 2°50.979 11.4 274 17.9 101530 83
2002-08-21 08:14:41 51°18.419 2°50.979 11.6 280 17.9 101530 83
2002-08-21 08:14:47 51°18.418 2°50.979 11.2 279 17.9 101540 83
2002-08-21 08:14:52 51°18.418 2°50.979 10.2 279 17.9 101540 83
2002-08-21 08:14:56 51°18.417 2°50.98 10.3 278 17.9 101530 83
2002-08-21 08:15:01 51°18.417 2°50.98 9.6 275 17.9 101530 83
2002-08-21 08:15:05 51°18.417 2°50.981 9.9 278 17.9 101530 82
2002-08-21 08:15:12 51°18.416 2°50.981 10.6 274 17.9 101530 82
2002-08-21 08:15:16 51°18.416 2°50.981 12 277 17.9 101530 82
2002-08-21 08:15:21 51°18.416 2°50.981 10.7 277 17.9 101530 82
2002-08-21 08:15:27 51°18.416 2°50.982 11.3 277 17.9 101540 82
2002-08-21 08:15:32 51°18.415 2°50.982 10.3 277 17.9 101540 82
2002-08-21 08:15:37 51°18.415 2°50.982 10.6 280 17.9 101540 82
2002-08-21 08:15:41 51°18.415 2°50.983 11 278 17.9 101540 82
2002-08-21 08:15:47 51°18.415 2°50.983 10.4 276 17.9 101540 82
2002-08-21 08:15:52 51°18.415 2°50.983 11.6 278 17.9 101540 82
2002-08-21 08:15:56 51°18.414 2°50.983 11.7 278 17.9 101530 82
2002-08-21 08:16:01 51°18.414 2°50.983 10.2 277 17.9 101530 82
2002-08-21 08:16:05 51°18.414 2°50.984 10.9 277 17.9 101530 82
2002-08-21 08:16:12 51°18.414 2°50.984 11.2 277 17.9 101530 82
2002-08-21 08:16:17 51°18.414 2°50.984 11.4 278 17.9 101540 82
2002-08-21 08:16:21 51°18.414 2°50.984 11 278 17.9 101540 82
2002-08-21 08:16:25 51°18.414 2°50.984 11 276 17.9 101540 82
2002-08-21 08:16:32 51°18.414 2°50.984 10.5 272 17.9 101540 82
2002-08-21 08:16:36 51°18.414 2°50.985 11.3 276 17.9 101540 82
2002-08-21 08:16:41 51°18.414 2°50.985 9.8 277 17.9 101540 82
2002-08-21 08:16:46 51°18.414 2°50.986 10.8 280 17.9 101540 82
2002-08-21 08:16:51 51°18.413 2°50.986 11 285 17.9 101540 82
2002-08-21 08:16:57 51°18.412 2°50.986 10.5 285 18 101540 82
2002-08-21 08:17:01 51°18.412 2°50.986 10.1 276 18 101540 82
2002-08-21 08:17:07 51°18.411 2°50.987 10.4 287 18 101530 83
2002-08-21 08:17:12 51°18.41 2°50.988 10.2 284 18 101530 83
2002-08-21 08:17:17 51°18.41 2°50.988 10.2 288 18 101540 83
2002-08-21 08:17:21 51°18.409 2°50.989 9.7 292 18 101540 83
2002-08-21 08:17:25 51°18.409 2°50.989 9.6 294 18 101530 83